N0QWM Weather Reports


time (UTC)temp
C
wind
direction
speed
KPH
gust
KPH
rain 1hr
cm
rain 24hr
cm
rain mn
cm
humidity
%
barometer
mb
20211017162344 18 348 4.8 4.8 0.00 0.00 0.00 41 1029.9
20211017161842 18 152 1.6 1.6 0.00 0.00 0.00 41 1029.7
20211017161340 18 55 1.6 1.6 0.00 0.00 0.00 41 1029.9
20211017160839 19 351 1.6 1.6 0.00 0.00 0.00 42 1029.9
20211017160339 18 26 0.0 1.6 0.00 0.00 0.00 44 1029.8
20211017155835 17 51 1.6 1.6 0.00 0.00 0.00 43 1029.7
20211017155335 17 30 0.0 0.0 0.00 0.00 0.00 47 1029.9
20211017154834 17 13 4.8 4.8 0.00 0.00 0.00 48 1029.5
20211017154332 16 25 1.6 1.6 0.00 0.00 0.00 49 1029.5
20211017153826 17 357 3.2 4.8 0.00 0.00 0.00 48 1029.6
20211017153324 17 3 1.6 1.6 0.00 0.00 0.00 47 1029.6
20211017152823 17 16 0.0 1.6 0.00 0.00 0.00 46 1029.7
20211017152323 17 82 1.6 3.2 0.00 0.00 0.00 47 1029.7
20211017151821 16 138 1.6 3.2 0.00 0.00 0.00 50 1029.8
20211017151322 16 332 4.8 8.0 0.00 0.00 0.00 50 1029.6
20211017150820 15 67 1.6 1.6 0.00 0.00 0.00 51 1029.8
20211017150319 15 48 3.2 4.8 0.00 0.00 0.00 51 1029.8
20211017145817 16 31 1.6 3.2 0.00 0.00 0.00 56 1029.9
20211017145316 16 31 0.0 0.0 0.00 0.00 0.00 54 1029.9
20211017144814 15 29 1.6 1.6 0.00 0.00 0.00 61 1030.0
20211017144312 14 30 0.0 0.0 0.00 0.00 0.00 63 1030.0
20211017143810 13 351 0.0 0.0 0.00 0.00 0.00 64 1030.0
20211017143308 13 22 1.6 3.2 0.00 0.00 0.00 65 1029.7
20211017142807 12 42 0.0 0.0 0.00 0.00 0.00 70 1029.8
20211017142306 12 140 1.6 1.6 0.00 0.00 0.00 72 1029.8
20211017141804 12 65 1.6 1.6 0.00 0.00 0.00 74 1029.7
20211017141301 11 15 3.2 3.2 0.00 0.00 0.00 76 1029.7
20211017140800 11 0 1.6 1.6 0.00 0.00 0.00 78 1029.6
20211017140258 11 358 1.6 1.6 0.00 0.00 0.00 79 1029.6
20211017135757 10 26 0.0 0.0 0.00 0.00 0.00 82 1029.5
20211017135256 10 28 0.0 0.0 0.00 0.00 0.00 87 1029.7
20211017134754 10 28 0.0 0.0 0.00 0.00 0.00 89 1029.6
20211017134252 9 25 0.0 0.0 0.00 0.00 0.00 91 1029.4
20211017133750 8 0 0.0 0.0 0.00 0.00 0.00 93 1029.4
20211017133249 8 3 0.0 0.0 0.00 0.00 0.00 94 1029.5
20211017132746 8 3 0.0 0.0 0.00 0.00 0.00 95 1029.3
20211017132247 7 3 1.6 1.6 0.00 0.00 0.00 95 1029.3
20211017131746 7 3 0.0 0.0 0.00 0.00 0.00 95 1029.3
20211017131245 7 3 0.0 0.0 0.00 0.00 0.00 95 1029.3
20211017130746 6 3 0.0 0.0 0.00 0.00 0.00 95 1029.4
20211017130245 6 3 0.0 0.0 0.00 0.00 0.00 95 1029.1
20211017125742 6 3 0.0 0.0 0.00 0.00 0.00 95 1029.2
20211017125241 6 3 0.0 0.0 0.00 0.00 0.00 95 1029.2
20211017124739 6 3 0.0 0.0 0.00 0.00 0.00 95 1029.1
20211017124239 6 2 0.0 0.0 0.00 0.00 0.00 95 1029.0
20211017123738 5 2 0.0 0.0 0.00 0.00 0.00 95 1029.2
20211017123237 5 2 0.0 0.0 0.00 0.00 0.00 95 1029.0
20211017122737 5 2 0.0 0.0 0.00 0.00 0.00 95 1028.9
20211017122237 5 2 0.0 0.0 0.00 0.00 0.00 95 1028.8
20211017121735 5 2 0.0 0.0 0.00 0.00 0.00 95 1028.8
20211017121233 5 2 0.0 0.0 0.00 0.00 0.00 94 1028.8
20211017120730 5 2 0.0 0.0 0.00 0.00 0.00 94 1028.8
20211017120228 5 2 0.0 0.0 0.00 0.00 0.00 94 1028.5
20211017115729 5 2 0.0 0.0 0.00 0.00 0.00 94 1028.9
20211017115226 5 2 0.0 0.0 0.00 0.00 0.00 94 1028.7
20211017114725 5 2 0.0 0.0 0.00 0.00 0.00 94 1028.5
20211017114222 5 2 0.0 0.0 0.00 0.00 0.00 94 1028.4
20211017113721 5 2 0.0 0.0 0.00 0.00 0.00 94 1028.4
20211017113220 5 2 0.0 0.0 0.00 0.00 0.00 94 1028.5
20211017112719 5 2 0.0 1.6 0.00 0.00 0.00 94 1028.5
20211017112217 6 2 0.0 0.0 0.00 0.00 0.00 94 1028.7
20211017111715 5 3 0.0 1.6 0.00 0.00 0.00 94 1028.6
20211017111213 5 3 0.0 0.0 0.00 0.00 0.00 94 1028.6
20211017110712 6 7 0.0 0.0 0.00 0.00 0.00 94 1028.5
20211017110211 6 7 0.0 0.0 0.00 0.00 0.00 94 1028.6
20211017105709 6 7 0.0 0.0 0.00 0.00 0.00 94 1028.5
20211017105207 6 10 0.0 0.0 0.00 0.00 0.00 94 1028.5
20211017104706 6 10 0.0 0.0 0.00 0.00 0.00 94 1028.6
20211017104205 6 14 0.0 0.0 0.00 0.00 0.00 94 1028.3
20211017103704 6 14 1.6 1.6 0.00 0.00 0.00 94 1028.4
20211017103204 6 14 0.0 1.6 0.00 0.00 0.00 94 1028.3
20211017102702 6 14 0.0 0.0 0.00 0.00 0.00 94 1028.3
20211017102200 6 15 0.0 0.0 0.00 0.00 0.00 94 1028.3
20211017101658 6 14 0.0 0.0 0.00 0.00 0.00 94 1028.2
20211017101156 6 14 0.0 0.0 0.00 0.00 0.00 94 1028.2
20211017100656 6 14 0.0 0.0 0.00 0.00 0.00 94 1028.0
20211017100155 6 14 0.0 0.0 0.00 0.00 0.00 94 1028.1
20211017095654 6 15 0.0 0.0 0.00 0.00 0.00 94 1028.3
20211017095153 6 15 0.0 0.0 0.00 0.00 0.00 94 1028.1
20211017094651 6 15 0.0 0.0 0.00 0.00 0.00 94 1028.2
20211017094149 6 15 0.0 1.6 0.00 0.00 0.00 94 1028.2
20211017093647 6 15 0.0 0.0 0.00 0.00 0.00 94 1028.2
20211017093145 6 15 0.0 0.0 0.00 0.00 0.00 94 1028.2
20211017092644 6 15 0.0 0.0 0.00 0.00 0.00 94 1028.3
20211017092142 6 15 0.0 0.0 0.00 0.00 0.00 94 1028.4
20211017091638 6 15 0.0 0.0 0.00 0.00 0.00 94 1028.3
20211017091136 6 15 0.0 0.0 0.00 0.00 0.00 94 1028.2
20211017090635 6 15 0.0 0.0 0.00 0.00 0.00 94 1028.3
20211017090133 6 15 0.0 0.0 0.00 0.00 0.00 93 1028.1
20211017085633 6 15 0.0 0.0 0.00 0.00 0.00 93 1028.1
20211017085131 6 15 0.0 0.0 0.00 0.00 0.00 93 1028.0
20211017084631 6 15 0.0 0.0 0.00 0.00 0.00 93 1028.2
20211017084125 6 15 0.0 0.0 0.00 0.00 0.00 93 1028.3
20211017083624 6 15 0.0 0.0 0.00 0.00 0.00 93 1028.1
20211017083122 6 15 0.0 0.0 0.00 0.00 0.00 93 1028.1
20211017082622 7 15 0.0 0.0 0.00 0.00 0.00 93 1027.9
20211017082120 7 15 0.0 0.0 0.00 0.00 0.00 93 1028.0
20211017081617 7 15 0.0 0.0 0.00 0.00 0.00 93 1028.1
20211017081109 7 15 0.0 0.0 0.00 0.00 0.00 93 1028.1
20211017080607 7 17 0.0 0.0 0.00 0.00 0.00 93 1028.1
20211017080102 7 17 0.0 0.0 0.00 0.00 0.00 93 1028.1
20211017075601 7 17 0.0 0.0 0.00 0.00 0.00 93 1027.8
20211017075100 7 17 0.0 0.0 0.00 0.00 0.00 93 1027.7
20211017074559 7 17 0.0 0.0 0.00 0.00 0.00 93 1027.9
20211017074059 7 17 0.0 0.0 0.00 0.00 0.00 93 1028.1
20211017073559 7 17 0.0 0.0 0.00 0.00 0.00 93 1028.0
20211017073058 7 17 0.0 0.0 0.00 0.00 0.00 92 1027.9
20211017072557 7 17 0.0 0.0 0.00 0.00 0.00 92 1028.1
20211017072055 7 17 0.0 0.0 0.00 0.00 0.00 92 1028.0
20211017071553 7 17 0.0 0.0 0.00 0.00 0.00 92 1028.0
20211017071051 7 17 0.0 0.0 0.00 0.00 0.00 92 1027.9
20211017070551 7 17 0.0 0.0 0.00 0.00 0.00 92 1027.9
20211017070050 7 17 0.0 0.0 0.00 0.00 0.00 92 1028.0
20211017065549 7 17 0.0 0.0 0.00 0.00 0.00 92 1027.9
20211017065049 7 17 0.0 0.0 0.00 0.00 0.00 92 1028.0
20211017064548 7 17 0.0 0.0 0.00 0.00 0.00 92 1028.0
20211017064047 7 17 0.0 0.0 0.00 0.00 0.00 92 1028.0
20211017063544 7 17 0.0 0.0 0.00 0.00 0.00 92 1027.9
20211017063043 7 17 0.0 0.0 0.00 0.00 0.00 92 1027.8
20211017062542 8 17 0.0 0.0 0.00 0.00 0.00 92 1028.0
20211017062040 7 17 0.0 0.0 0.00 0.00 0.00 91 1027.9
20211017061538 8 17 0.0 0.0 0.00 0.00 0.00 91 1027.9
20211017061036 7 17 0.0 0.0 0.00 0.00 0.00 91 1028.1
20211017060535 7 17 0.0 0.0 0.00 0.00 0.00 91 1028.2
20211017060036 8 17 0.0 0.0 0.00 0.00 0.00 91 1028.0
20211017055534 8 17 0.0 0.0 0.00 0.00 0.00 91 1027.9
20211017055031 8 17 0.0 0.0 0.00 0.00 0.00 91 1027.6
20211017054531 8 17 0.0 0.0 0.00 0.00 0.00 90 1028.0
20211017054031 8 17 0.0 0.0 0.00 0.00 0.00 90 1028.1
20211017053530 8 17 0.0 0.0 0.00 0.00 0.00 90 1028.0
20211017053029 8 17 0.0 0.0 0.00 0.00 0.00 90 1027.8
20211017052527 8 17 0.0 0.0 0.00 0.00 0.00 90 1027.8
20211017052026 8 17 0.0 0.0 0.00 0.00 0.00 89 1028.0
20211017051525 8 17 0.0 0.0 0.00 0.00 0.00 89 1027.9
20211017051023 8 17 0.0 0.0 0.00 0.00 0.00 89 1027.9
20211017050524 8 17 0.0 0.0 0.00 0.00 0.00 89 1027.8
20211017050022 8 17 0.0 0.0 0.00 0.33 0.33 89 1027.9
20211017045521 8 17 0.0 0.0 0.00 0.33 0.33 89 1027.8
20211017045020 8 16 0.0 0.0 0.00 0.33 0.33 89 1027.6
20211017044520 8 16 0.0 0.0 0.00 0.33 0.33 89 1027.6
20211017044018 8 16 0.0 0.0 0.00 0.33 0.33 89 1027.6
20211017043514 9 16 0.0 0.0 0.00 0.33 0.33 89 1027.7
20211017043008 9 16 0.0 0.0 0.00 0.33 0.33 89 1027.4
20211017042505 9 16 0.0 0.0 0.00 0.33 0.33 88 1027.6
20211017042003 9 16 0.0 0.0 0.00 0.33 0.33 88 1027.6
20211017041501 9 16 0.0 0.0 0.00 0.33 0.33 88 1027.7
20211017040959 9 16 0.0 0.0 0.00 0.33 0.33 88 1027.6
20211017040457 9 16 0.0 0.0 0.00 0.33 0.33 88 1027.6
20211017035956 9 16 0.0 0.0 0.00 0.33 0.33 88 1027.5
20211017035452 9 16 0.0 0.0 0.00 0.33 0.33 87 1027.5
20211017034951 9 16 0.0 0.0 0.00 0.33 0.33 88 1027.6
20211017034449 9 16 0.0 0.0 0.00 0.33 0.33 87 1027.4
20211017033948 9 16 0.0 0.0 0.00 0.33 0.33 87 1027.6
20211017033442 9 16 0.0 0.0 0.00 0.33 0.33 87 1027.8
20211017032942 9 16 0.0 0.0 0.00 0.33 0.33 87 1027.6
20211017032441 9 16 0.0 0.0 0.00 0.33 0.33 87 1027.7
20211017031940 9 16 0.0 0.0 0.00 0.33 0.33 87 1027.7
20211017031439 10 16 0.0 0.0 0.00 0.33 0.33 87 1027.6
20211017030938 10 16 0.0 0.0 0.00 0.33 0.33 86 1027.6
20211017030437 10 16 0.0 0.0 0.00 0.33 0.33 86 1027.7
20211017025936 10 16 0.0 0.0 0.00 0.33 0.33 86 1027.8
20211017025436 10 16 0.0 0.0 0.00 0.33 0.33 85 1027.7
20211017024934 10 16 0.0 0.0 0.00 0.33 0.33 85 1027.5
20211017024434 10 16 0.0 0.0 0.00 0.33 0.33 85 1027.7
20211017023933 10 16 0.0 0.0 0.00 0.33 0.33 84 1027.5
20211017023433 10 16 0.0 0.0 0.00 0.33 0.33 84 1027.2
20211017022932 10 16 0.0 0.0 0.00 0.33 0.33 84 1027.3
20211017022431 10 16 0.0 0.0 0.00 0.33 0.33 84 1027.3
20211017021929 11 16 0.0 0.0 0.00 0.33 0.33 84 1027.1
20211017021428 11 16 0.0 0.0 0.00 0.33 0.33 83 1027.1
20211017020926 11 16 0.0 0.0 0.00 0.33 0.33 82 1027.0
20211017020425 11 16 0.0 0.0 0.00 0.33 0.33 81 1026.8
20211017015923 11 16 0.0 0.0 0.00 0.33 0.33 81 1027.1
20211017015423 11 16 0.0 0.0 0.00 0.33 0.33 81 1026.8
20211017014922 11 16 0.0 0.0 0.00 0.33 0.33 80 1026.8
20211017014420 11 15 0.0 0.0 0.00 0.33 0.33 81 1026.9
20211017013919 11 15 0.0 0.0 0.00 0.33 0.33 81 1026.8
20211017013409 11 16 0.0 0.0 0.00 0.33 0.33 80 1026.9
20211017012909 11 16 0.0 0.0 0.00 0.33 0.33 80 1026.7
20211017012408 11 16 0.0 0.0 0.00 0.33 0.33 80 1026.8
20211017011908 11 16 0.0 0.0 0.00 0.33 0.33 80 1026.6
20211017011407 11 15 0.0 0.0 0.00 0.33 0.33 81 1026.6
20211017010906 11 15 0.0 0.0 0.00 0.33 0.33 81 1026.5
20211017010405 11 15 0.0 0.0 0.00 0.33 0.33 81 1026.6
20211017005904 11 15 0.0 0.0 0.00 0.33 0.33 80 1026.7
20211017005400 11 15 0.0 0.0 0.00 0.33 0.33 80 1026.5
20211017004859 11 15 0.0 0.0 0.00 0.33 0.33 80 1026.7
20211017004353 11 15 0.0 0.0 0.00 0.33 0.33 79 1026.5
20211017003852 12 14 0.0 0.0 0.00 0.33 0.33 79 1026.7
20211017003353 12 14 0.0 0.0 0.00 0.33 0.33 78 1026.5
20211017002845 12 14 0.0 0.0 0.00 0.33 0.33 76 1026.4
20211017002344 12 14 0.0 0.0 0.00 0.33 0.33 76 1026.4
20211017001842 12 14 0.0 0.0 0.00 0.33 0.33 76 1026.4
20211017001340 12 15 0.0 0.0 0.00 0.33 0.33 75 1026.2
20211017000836 12 14 0.0 0.0 0.00 0.33 0.33 74 1026.2
20211017000335 12 14 0.0 0.0 0.00 0.33 0.33 72 1026.2
20211016235832 13 16 0.0 0.0 0.00 0.33 0.33 71 1026.2
20211016235331 13 15 0.0 0.0 0.00 0.33 0.33 72 1026.1
20211016234829 13 4 0.0 0.0 0.00 0.33 0.33 70 1025.9
20211016234327 13 3 0.0 0.0 0.00 0.33 0.33 69 1025.8
20211016233827 14 4 0.0 0.0 0.00 0.33 0.33 66 1026.0
20211016233326 14 4 0.0 0.0 0.00 0.33 0.33 64 1025.7
20211016232826 15 3 0.0 0.0 0.00 0.33 0.33 62 1025.8
20211016232324 15 3 0.0 0.0 0.00 0.33 0.33 60 1025.9
20211016231822 15 3 0.0 0.0 0.00 0.33 0.33 58 1025.7
20211016231320 15 3 0.0 0.0 0.00 0.33 0.33 57 1025.8
20211016230818 16 3 0.0 0.0 0.00 0.33 0.33 55 1025.5
20211016230310 16 2 0.0 0.0 0.00 0.33 0.33 52 1025.7
20211016225810 16 16 0.0 0.0 0.00 0.33 0.33 52 1025.6
20211016225309 16 6 0.0 0.0 0.00 0.33 0.33 51 1025.3
20211016224808 17 14 1.6 1.6 0.00 0.33 0.33 49 1025.5
20211016224257 17 7 0.0 0.0 0.00 0.33 0.33 48 1025.4
20211016223757 17 343 1.6 1.6 0.00 0.33 0.33 45 1025.4
20211016223255 17 358 3.2 3.2 0.00 0.33 0.33 47 1025.4
20211016222754 17 339 1.6 1.6 0.00 0.33 0.33 46 1025.3
20211016222252 17 4 3.2 3.2 0.00 0.33 0.33 48 1025.4
20211016221751 18 347 1.6 1.6 0.00 0.33 0.33 48 1025.5
20211016221248 18 347 1.6 3.2 0.00 0.33 0.33 45 1025.3
20211016220748 18 323 0.0 1.6 0.00 0.33 0.33 47 1025.3
20211016220247 18 10 1.6 3.2 0.00 0.33 0.33 47 1025.1
20211016215742 18 25 0.0 0.0 0.00 0.33 0.33 46 1025.2
20211016215240 18 349 1.6 1.6 0.00 0.33 0.33 45 1025.0
20211016214738 18 24 1.6 1.6 0.00 0.33 0.33 43 1025.0
20211016214237 18 14 3.2 3.2 0.00 0.33 0.33 42 1025.1
20211016213735 18 8 1.6 3.2 0.00 0.33 0.33 42 1025.0
20211016213235 18 342 3.2 3.2 0.00 0.33 0.33 44 1024.7
20211016212732 18 29 6.4 8.0 0.00 0.33 0.33 40 1025.0
20211016212230 18 3 3.2 3.2 0.00 0.33 0.33 42 1024.9
20211016211728 18 23 0.0 1.6 0.00 0.33 0.33 42 1024.8
20211016211227 18 358 3.2 3.2 0.00 0.33 0.33 41 1024.9
20211016210726 18 12 1.6 3.2 0.00 0.33 0.33 41 1024.9
20211016210225 18 251 3.2 3.2 0.00 0.33 0.33 41 1024.8
20211016205722 18 28 4.8 4.8 0.00 0.33 0.33 43 1024.7
20211016205221 18 13 1.6 3.2 0.00 0.33 0.33 41 1024.8
20211016204719 18 0 1.6 3.2 0.00 0.33 0.33 41 1024.8
20211016204218 18 37 8.0 11.3 0.00 0.33 0.33 41 1024.8
20211016203716 19 17 4.8 9.7 0.00 0.33 0.33 40 1024.6
20211016203216 18 336 6.4 11.3 0.00 0.33 0.33 40 1025.0
20211016202715 19 42 4.8 8.0 0.00 0.33 0.33 41 1024.6
20211016202212 19 12 3.2 3.2 0.00 0.33 0.33 45 1024.8
20211016201712 19 325 1.6 1.6 0.00 0.33 0.33 46 1024.2
20211016201211 19 265 4.8 8.0 0.00 0.33 0.33 47 1024.6
20211016200710 19 298 1.6 3.2 0.00 0.33 0.33 46 1024.6
20211016200209 18 344 3.2 3.2 0.00 0.33 0.33 45 1024.6
20211016195709 19 349 3.2 4.8 0.00 0.33 0.33 45 1024.8
20211016195209 19 339 1.6 3.2 0.00 0.33 0.33 45 1024.3
20211016194701 20 5 1.6 1.6 0.00 0.33 0.33 44 1024.6
20211016194159 20 336 1.6 3.2 0.00 0.33 0.33 47 1024.8
20211016193658 20 349 3.2 4.8 0.00 0.33 0.33 45 1024.8
20211016193157 20 13 3.2 3.2 0.00 0.33 0.33 46 1024.7
20211016192655 20 2 6.4 8.0 0.00 0.33 0.33 46 1024.9
20211016192154 20 3 4.8 8.0 0.00 0.33 0.33 45 1024.6
20211016191652 20 35 0.0 0.0 0.00 0.33 0.33 48 1024.6
20211016191152 20 2 1.6 3.2 0.00 0.33 0.33 46 1024.8
20211016190649 20 7 1.6 3.2 0.00 0.33 0.33 46 1024.6
20211016190149 19 17 3.2 4.8 0.00 0.33 0.33 47 1024.9
20211016185648 19 3 3.2 4.8 0.00 0.33 0.33 45 1024.9
20211016185147 20 339 8.0 9.7 0.00 0.33 0.33 46 1025.0
20211016184645 20 10 1.6 3.2 0.00 0.33 0.33 45 1024.8
20211016184142 20 15 1.6 1.6 0.00 0.33 0.33 47 1025.1
20211016183641 20 331 3.2 3.2 0.00 0.33 0.33 47 1024.8
20211016183141 20 326 1.6 3.2 0.00 0.33 0.33 48 1024.9
20211016182640 20 343 1.6 1.6 0.00 0.33 0.33 48 1025.0
20211016182134 20 285 3.2 4.8 0.00 0.33 0.33 50 1025.0
20211016181625 20 337 3.2 4.8 0.00 0.33 0.33 50 1025.2
20211016181124 20 344 3.2 4.8 0.00 0.33 0.33 50 1025.2
20211016180623 19 348 4.8 4.8 0.00 0.33 0.33 51 1025.4
20211016180121 19 7 0.0 0.0 0.00 0.33 0.33 49 1025.2
20211016175619 19 20 4.8 8.0 0.00 0.33 0.33 49 1025.4
20211016175118 19 318 1.6 3.2 0.00 0.33 0.33 48 1025.4
20211016174617 18 356 4.8 4.8 0.00 0.33 0.33 50 1025.4
20211016174115 19 20 8.0 11.3 0.00 0.33 0.33 48 1025.2
20211016173613 20 351 0.0 0.0 0.00 0.33 0.33 50 1025.5
20211016173112 19 354 1.6 4.8 0.00 0.33 0.33 52 1025.8
20211016172611 19 28 8.0 9.7 0.00 0.33 0.33 52 1025.5
20211016172108 19 336 3.2 3.2 0.00 0.33 0.33 52 1025.8
20211016171605 18 9 3.2 4.8 0.00 0.33 0.33 53 1025.6
20211016171104 19 0 1.6 3.2 0.00 0.33 0.33 56 1025.9
20211016170601 18 355 1.6 1.6 0.00 0.33 0.33 55 1026.1
20211016170059 18 15 3.2 3.2 0.00 0.33 0.33 56 1025.9
20211016165553 18 3 3.2 3.2 0.00 0.33 0.33 59 1025.8
20211016165053 18 348 6.4 9.7 0.00 0.33 0.33 57 1025.8
20211016164551 18 341 4.8 4.8 0.00 0.33 0.33 58 1025.8
20211016164051 18 351 3.2 4.8 0.00 0.33 0.33 59 1025.6
20211016163550 18 68 3.2 3.2 0.00 0.33 0.33 59 1025.5
20211016163049 19 353 4.8 4.8 0.00 0.33 0.33 58 1025.5